This is the latest recevied weather packets stored in our database for station/object KC5TXI. If no packets are shown the sender has not sent any weather packets the latest 10 day(s).
| Time | Temp. | Humidity | Pressure | Rain* | Wind** | Luminosity | Snow |
|---|---|---|---|---|---|---|---|
| 1787594687 | 41.67° C | 29% | 1015.4 hPa | 0 mm | - | 570 W/m² | - |
| 1787594385 | 41.11° C | 30% | 1015.5 hPa | 0 mm | - | 562 W/m² | - |
| 1787594080 | 41.11° C | 30% | 1015.6 hPa | 0 mm | - | 605 W/m² | - |
| 1787593166 | 40.56° C | 31% | 1015.6 hPa | 0 mm | - | 600 W/m² | - |
| 1787592865 | 40.56° C | 31% | 1015.5 hPa | 0 mm | - | 600 W/m² | - |
| 1787592560 | 41.11° C | 30% | 1015.9 hPa | 0 mm | - | 619 W/m² | - |
| 1787592254 | 40.56° C | 30% | 1016.1 hPa | 0 mm | - | 585 W/m² | - |
| 1787590427 | 40° C | 32% | 1016.2 hPa | 0 mm | - | 686 W/m² | - |
| 1787590122 | 40° C | 32% | 1016.2 hPa | 0 mm | - | 686 W/m² | - |
| 1787589817 | 38.89° C | 33% | 1016.4 hPa | 0 mm | - | 691 W/m² | - |
| 1787589513 | 38.89° C | 33% | 1016.5 hPa | 0 mm | - | 656 W/m² | - |
| 1787589208 | 38.89° C | 33% | 1016.4 hPa | 0 mm | - | 692 W/m² | - |
| 1787588903 | 38.89° C | 34% | 1016.3 hPa | 0 mm | - | 681 W/m² | - |
| 1787588599 | 38.89° C | 34% | 1016.4 hPa | 0 mm | - | 649 W/m² | - |
| 1787588289 | 38.33° C | 34% | 1016.5 hPa | 0 mm | - | 606 W/m² | - |
| 1787587984 | 38.33° C | 35% | 1016.4 hPa | 0 mm | - | 583 W/m² | - |
| 1787587680 | 37.78° C | 36% | 1016.6 hPa | 0 mm | - | 627 W/m² | - |
| 1787587375 | 37.78° C | 36% | 1016.6 hPa | 0 mm | - | 593 W/m² | - |
| 1787587069 | 37.78° C | 36% | 1016.7 hPa | 0 mm | - | 572 W/m² | - |
| 1787586763 | 36.67° C | 37% | 1016.6 hPa | 0 mm | - | 488 W/m² | - |
| 1787586458 | 36.67° C | 37% | 1016.4 hPa | 0 mm | - | 492 W/m² | - |
| 1787586155 | 36.67° C | 38% | 1016.4 hPa | 0 mm | - | 521 W/m² | - |
| 1787585851 | 36.11° C | 39% | 1016.4 hPa | 0 mm | - | 517 W/m² | - |
| 1787585550 | 35.56° C | 39% | 1016.4 hPa | 0 mm | - | 478 W/m² | - |
| 1787585245 | 35.56° C | 40% | 1016.2 hPa | 0 mm | - | 450 W/m² | - |
* Rain latest hour (hover to see other rain measurements)
** Current wind speed in m/s (hover to see current wind gust speed)